Change the Weather History Date:

Tuesday, February 28, 2012

  Actual Average Record
Temperature  
Mean Temperature 72 °F -  
Max Temperature 81 °F 77 °F 84 °F (1958)
Min Temperature 64 °F 63 °F 57 °F (1999)
Cooling Degree Days 8    
Growing Degree Days 22 (Base 50)    
Moisture  
Dew Point 60 °F    
Average Humidity 66    
Maximum Humidity 81    
Minimum Humidity 47    
Precipitation  
Precipitation 0.00 in - - ()
Sea Level Pressure  
Sea Level Pressure 30.07 in    
Wind  
Wind Speed 8 mph (NE)    
Max Wind Speed 18 mph    
Max Gust Speed 26 mph    
Visibility 10 miles    
Events      
Averages and records for this station are not official NWS values.
T = Trace of Precipitation, MM = Missing Value Source: NWS Daily Summary

Daily Weather History Graph

Daily Weather History Graph

Search for Another Location

Airport or City:

Trip Planner

Search our weather history database for the weather conditions in past years. The results will help you decide how hot, cold, wet, or windy it might be!

Date:

Astronomy

Feb. 28, 2012 Rise Set
Actual Time 6:49 AM HST 6:32 PM HST
Civil Twilight 6:27 AM HST 6:54 PM HST
Nautical Twilight 6:01 AM HST 7:20 PM HST
Astronomical Twilight 5:35 AM HST 7:46 PM HST
Moon 10:59 AM HST (2/28) No Moon Set
Length of Visible Light 12h 27m
Length of Day
11h 42m
Waxing Crescent, 39% of the Moon is Illuminated
Feb 28
Waxing Crescent
Feb 29
First Quarter
Mar 7
Full
Mar 14
Last Quarter
Mar 22
New

Hourly Weather History & Observations

Time (HST) Temp. Heat Index Dew Point Humidity Pressure Visibility Wind Dir Wind Speed Gust Speed Precip Events Conditions
12:54 AM 68.0 °F - 59.0 °F 73% 30.07 in 10.0 mi North 4.6 mph - N/A   Unknown
1:54 AM 70.0 °F - 63.0 °F 78% 30.05 in 10.0 mi NNE 11.5 mph 19.6 mph N/A   Unknown
2:54 AM 69.1 °F - 60.1 °F 73% 30.05 in 10.0 mi Variable 3.5 mph - N/A   Unknown
3:54 AM 64.9 °F - 57.9 °F 78% 30.05 in 10.0 mi East 3.5 mph - N/A   Unknown
4:54 AM 66.9 °F - 59.0 °F 76% 30.06 in 10.0 mi NNE 5.8 mph - N/A   Unknown
5:54 AM 69.1 °F - 57.9 °F 68% 30.07 in 10.0 mi NNE 5.8 mph - N/A   Partly Cloudy
6:54 AM 64.9 °F - 55.9 °F 73% 30.08 in 10.0 mi WNW 4.6 mph - N/A   Partly Cloudy
7:54 AM 72.0 °F - 57.0 °F 59% 30.09 in 10.0 mi Variable 4.6 mph - N/A   Clear
8:54 AM 75.0 °F - 57.0 °F 53% 30.10 in 10.0 mi South 6.9 mph - N/A   Clear
9:54 AM 79.0 °F - 57.0 °F 47% 30.10 in 10.0 mi Variable 3.5 mph - N/A   Clear
10:54 AM 79.0 °F - 60.1 °F 52% 30.10 in 10.0 mi NNE 11.5 mph 19.6 mph N/A   Partly Cloudy
11:54 AM 79.0 °F - 60.1 °F 52% 30.08 in 10.0 mi NE 15.0 mph 21.9 mph N/A   Partly Cloudy
12:54 PM 81.0 °F 81.7 °F 61.0 °F 50% 30.06 in 10.0 mi NE 11.5 mph 21.9 mph N/A   Scattered Clouds
1:54 PM 80.1 °F 81.2 °F 62.1 °F 54% 30.04 in 10.0 mi NE 18.4 mph 24.2 mph N/A   Partly Cloudy
2:54 PM 80.1 °F 81.1 °F 61.0 °F 52% 30.04 in 10.0 mi NE 15.0 mph 19.6 mph N/A   Scattered Clouds
3:54 PM 79.0 °F - 60.1 °F 52% 30.04 in 10.0 mi NE 15.0 mph 19.6 mph N/A   Clear
4:54 PM 75.9 °F - 63.0 °F 64% 30.04 in 10.0 mi NNE 15.0 mph 21.9 mph N/A   Clear
5:54 PM 72.0 °F - 64.0 °F 76% 30.05 in 10.0 mi NE 13.8 mph 26.5 mph N/A   Partly Cloudy
6:54 PM 70.0 °F - 64.0 °F 81% 30.07 in 10.0 mi NE 12.7 mph 23.0 mph N/A   Scattered Clouds
7:54 PM 71.1 °F - 62.1 °F 73% 30.08 in 10.0 mi NE 9.2 mph 16.1 mph N/A   Clear
8:54 PM 70.0 °F - 62.1 °F 76% 30.09 in 10.0 mi NE 9.2 mph 16.1 mph N/A   Clear
9:54 PM 70.0 °F - 63.0 °F 78% 30.10 in 10.0 mi NE 12.7 mph 24.2 mph N/A   Mostly Cloudy
10:54 PM 70.0 °F - 62.1 °F 76% 30.09 in 10.0 mi NE 10.4 mph - N/A   Mostly Cloudy
11:54 PM 70.0 °F - 62.1 °F 76% 30.07 in 10.0 mi NE 10.4 mph - N/A   Clear